Regional Weather Roundup
Issued by NWS

Home | Current Version | Previous Version | Text Only | Print | Product List | Glossary Off
Versions: 1 2 3 4 5 6 7 8 9 10 11 12 13 14 15 16 17 18 19 20 21 22 23 24 25 26 27 28 29 30 31 32 33 34 35 36 37 38 39 40 41 42 43 44 45 46 47 48 49 50

000
ASUS43 KMKX 240200
RWRWI

WISCONSIN REGIONAL WEATHER ROUNDUP
NATIONAL WEATHER SERVICE MILWAUKEE/SULLIVAN WI
900 PM CDT WED APR 23 2014

NOTE: "FAIR" INDICATES FEW OR NO CLOUDS BELOW 12,000 FEET WITH NO
SIGNIFICANT WEATHER AND/OR OBSTRUCTIONS TO VISIBILITY.

WIZ001-002-006>008-014>016-023>028-240300-
NORTHWEST WISCONSIN

CITY           SKY/WX    TMP DP  RH WIND       PRES   REMARKS
SUPERIOR ARPT  LGT RAIN  34  31  89 N5        30.04R WCI  30
ASHLAND        CLOUDY    35  29  78 N5        30.03S WCI  31
HAYWARD        CLOUDY    48  24  39 S6        30.00S
SIREN          LGT RAIN  42  36  79 SE6       30.00R
RICE LAKE      RAIN      44  33  64 SE9       30.01S
LADYSMITH      CLOUDY    48  26  43 E5        30.02R
EAU CLAIRE     LGT RAIN  42  39  89 E7        30.00R
MENOMONIE      DRIZZLE   41  40  94 E8        29.99F
NEW RICHMOND   RAIN      41  37  86 SE7       29.97S
OSCEOLA        LGT RAIN  41  40  96 E8        29.99S
$$

WIZ003>005-009-010-017-018-240300-
NORTH CENTRAL WISCONSIN

CITY           SKY/WX    TMP DP  RH WIND       PRES   REMARKS
WOODRUFF       CLOUDY    47  22  38 SE6       30.02S
RHINELANDER    CLOUDY    45  20  36 S9        30.04S
EAGLE RIVER    CLOUDY    46  18  32 S7        30.02S
LAND O LAKES   CLOUDY    44  20  38 CALM      30.03S
PHILLIPS       CLOUDY    47  26  43 SE5       30.01R
TOMAHAWK       CLOUDY    45  24  43 CALM      30.03S
MEDFORD        CLOUDY    45  26  47 E9G16     30.00F
MERRILL        CLOUDY    46  24  43 SE10      30.03F
$$

WIZ029-030-035-036-043>047-240300-
CENTRAL WISCONSIN

CITY           SKY/WX    TMP DP  RH WIND       PRES   REMARKS
WAUSAU         CLOUDY    46  22  38 E13       30.02F
MOSINEE        CLOUDY    45  25  45 E10       30.03F
MARSHFIELD     CLOUDY    46  26  45 SE10      30.01S
STEVENS POINT  CLOUDY    45  26  47 E9        30.04F
WAUPACA        CLOUDY    46  28  49 E10       30.07F
WAUTOMA        NOT AVBL
WISC RAPIDS    CLOUDY    47  27  45 E12       30.03F
CAMP DOUGLAS   NOT AVBL
$$

WIZ011>013-019>022-031-037>040-048>050-240300-
NORTHEAST WISCONSIN

CITY           SKY/WX    TMP DP  RH WIND       PRES   REMARKS
ANTIGO         CLOUDY    42  17  36 SE8       30.06F
STURGEON BAY   CLOUDY    39  14  35 S5        30.12F
GREEN BAY      CLOUDY    43   8  23 E9        30.10F
MANITOWOC      NOT AVBL
APPLETON       MOCLDY    45  16  31 E8        30.09F
CLINTONVILLE   CLOUDY    45  23  42 E9        30.08F
OSHKOSH        CLOUDY    43  17  35 E8        30.07F
$$

WIZ032>034-041-042-053>061-240300-
SOUTHWEST WISCONSIN

CITY           SKY/WX    TMP DP  RH WIND       PRES   REMARKS
LA CROSSE      CLOUDY    44  39  82 E9        29.99S
SPARTA         DRIZZLE   43  39  86 SE3       30.01R
VIROQUA        CLOUDY    42  37  84 SE9       29.98R
BOSCOBEL       CLOUDY    49  35  58 VRB5      30.01R
PRAIRIE DU CHI DRIZZLE   45  39  79 E8        29.98S
PLATTEVILLE    CLOUDY    45  39  79 SE7       30.01R
$$

WIZ056-057-062-063-064-067-068-240300-
SOUTH CENTRAL WISCONSIN

CITY           SKY/WX    TMP DP  RH WIND       PRES   REMARKS
BARABOO/DELLS  CLOUDY    46  33  61 E6        30.02R
LONE ROCK      NOT AVBL
WATERTOWN      CLOUDY    44  21  40 E9        30.07F
MADISON        CLOUDY    46  32  58 SE15      30.03F
MIDDLETON      CLOUDY    47  33  58 E12       30.02F
MONROE         LGT RAIN  47  28  47 E10G22    30.01S
JANESVILLE     CLOUDY    48  23  37 SE18      30.03F
$$

WIZ051-052-058>065-066-070>072-240300-
SOUTHEAST WISCONSIN

CITY           SKY/WX    TMP DP  RH WIND       PRES   REMARKS
MILWAUKEE      CLOUDY    38  21  50 NE7       30.11F WCI  33
WAUKESHA       CLOUDY    39  16  38 E9        30.10F WCI  33
MILWAUKEE/TIMM NOT AVBL
RACINE         CLOUDY    39  23  52 NE9       30.12F WCI  33
BURLINGTON     CLOUDY    41  23  49 E8        30.09F
KENOSHA        CLOUDY    40  22  48 E10       30.10F WCI  33
FOND DU LAC    CLOUDY    43  19  38 SE10      30.07F
SHEBOYGAN      CLOUDY    38  14  37 E7        30.10F WCI  33
WEST BEND      CLOUDY    39  10  30 E6        30.10F WCI  35
JUNEAU         CLOUDY    44  16  33 E12       30.08F
$$

LSZ147-162-240300-
LAKE SUPERIOR

STATION/POSITION TIME  TEMP    WIND        PRES    WAVE
                       AIR SEA DIR/SP/G            HT/PER
                 (UTC) (F)     (DEG/KT/KT) (MB)    (FT/S)
DEVILS ISLAND    0100   36      70/ 10/ 11 1017.9F
PORT WING        0140   34      50/  6/  8 1016.6R
SAXON HARBOR     0100             CALM     1016.3
$$

LMZ867-665-643>646-240300-
LAKE MICHIGAN

STATION/POSITION TIME  TEMP    WIND        PRES    WAVE
                       AIR SEA DIR/SP/G            HT/PER
                 (UTC) (F)     (DEG/KT/KT) (MB)    (FT/S)
NORTHPORT PIER   0100   40     190/  3/  5 1020.0F
SISTER BAY       0108   41        CALM       N/A
KEWAUNEE LAKESHO 0100   39     350/  2/  2 1020.7F
SHEBOYGAN LAKESH 0100   39      20/  3/  4 1021.0F
PORT WASHINGTON  0100   38      70/  3/  4 1020.7F
MILWAUKEE LAKESH 0100   37      50/  7/  7   N/A
KENOSHA   LAKESH 0100   38      40/  5/  7   N/A
$$

TC  - TEMPERATURE IN CELSIUS
VSB - VISIBILITY IN STATUTE MILES
WCI - WIND CHILL INDEX
HX  - HEAT INDEX




USA.gov is the U.S. government's official web portal to all federal, state and local government web resources and services.